User: anonymous   Login
Location: Unspecified
(0.0000°N, 0.0000°E)
Time: 07:46:58
(UTC+00:00)
Language:

NOAA 18 - Orbit

View from above orbital plane
View from above orbital plane
View from above satellite
View from above satellite

Ground track
Ground track

The orbit data is extracted from the following two-line orbital elements,

1 28654U 05018A   19078.60729942 +.00000059 +00000-0 +56900-4 0  9991
2 28654 099.1089 124.1574 0015200 075.7874 284.4984 14.12410121712560
Epoch (UTC): 19 March 2019 14:34:30
Eccentricity: 0.0015200
inclination: 99.1089°
perigee height: 840 km
apogee height: 862 km
right ascension of ascending node: 124.1574°
argument of perigee: 75.7874°
revolutions per day: 14.12410121
mean anomaly at epoch: 284.4984°
orbit number at epoch: 71256

The dashed part of the orbit path shows where the satellite is in the earth's shadow,  

DLR